Regional Weather Roundup
Issued by NWS Columbia, SC

Home | Current Version | Previous Version | Text Only | Print | Product List | Glossary On
Versions: 1 2 3 4 5 6 7 8 9 10 11 12 13 14 15 16 17 18 19 20 21 22 23 24 25 26 27 28 29 30 31 32 33 34 35 36 37 38 39 40 41 42 43 44 45 46 47 48 49 50
000
ASUS42 KCAE 230610
RWRCAE
REGIONAL WEATHER ROUNDUP
NATIONAL WEATHER SERVICE COLUMBIA SC
200 AM EDT WED JUL 23 2014

NOTE: "FAIR" INDICATES FEW OR NO CLOUDS BELOW 12,000 FEET WITH NO
SIGNIFICANT WEATHER AND/OR OBSTRUCTIONS TO VISIBILITY.

NOT ALL STATIONS ARE QUALITY CONTROLLED BY THE NATIONAL
WEATHER SERVICE. USE DATA WITH CAUTION...ESPECIALLY
DEWPOINT OBSERVATIONS.

SCZ001>056-GAZ040-063>065-077-230700-
...UPSTATE SOUTH CAROLINA...

CITY           SKY/WX    TMP DP  RH WIND       PRES   REMARKS
ANDERSON       PTCLDY    74  71  91 CALM      30.11F
6HR MIN TEMP:  73; 6HR MAX TEMP:  82;

LIBERTY        FAIR      69  50  51 CALM      30.11F HAZE
6HR MIN TEMP:  69; 6HR MAX TEMP:  86;

SPARTANBURG    FAIR      73  73 100 CALM      30.11F
CLEMSON        CLEAR     74  69  85 CALM      30.13F
6HR MIN TEMP:  74; 6HR MAX TEMP:  82;

GREENVILLE     PTCLDY    74  69  85 NW3       30.13F
6HR MIN TEMP:  74; 6HR MAX TEMP:  79;

GREENWOOD      FOG       72  71  97 CALM      30.11F VSB 3/4
6HR MIN TEMP:  72; 6HR MAX TEMP:  77;

GREER          MOCLDY    72  70  93 CALM      30.11F
6HR MIN TEMP:  72; 6HR MAX TEMP:  78;

ROCK HILL      FOG       72  72 100 CALM      30.11F VSB 1/2
6HR MIN TEMP:  71; 6HR MAX TEMP:  76;

CHESTER        FAIR      73  73 100 CALM      30.11F FOG
LAURENS        MOCLDY    73 N/A N/A N3        30.11F HAZE


...CENTRAL SOUTH CAROLINA...

CITY           SKY/WX    TMP DP  RH WIND       PRES   REMARKS
COLUMBIA APT   MOCLDY    80  73  79 CALM      30.07F
6HR MIN TEMP:  79; 6HR MAX TEMP:  83; 6HR PCP: TRACE;

COLUMBIA OWENS MOCLDY    77  74  90 CALM      30.09F
6HR MIN TEMP:  77; 6HR MAX TEMP:  83;

DARLINGTON     CLEAR     75  72  88 CALM      30.09F
6HR MIN TEMP:  75; 6HR MAX TEMP:  84;

FLORENCE       CLEAR     76  74  93 S3        30.08F
6HR MIN TEMP:  76; 6HR MAX TEMP:  83;

ORANGEBURG     PTCLDY    76  73  91 S3        30.08F
6HR MIN TEMP:  76; 6HR MAX TEMP:  82;

SUMTER SHAW    MOCLDY    75  75 100 CALM      30.07F
6HR MIN TEMP:  74; 6HR MAX TEMP:  81; 6HR PCP: TRACE;

NEWBERRY       FAIR      73  73 100 CALM      30.12F
AIKEN          FAIR      73  73 100 CALM      30.12F
BARNWELL       FAIR      75  73  94 CALM      30.09S
MANNING        FAIR      73 N/A N/A MISG      30.08F
CAMDEN         FAIR      73  73 100 CALM      30.10F
LANCASTER      LGT RAIN  73  73 100 CALM      30.10F
WINNSBORO      FAIR      73  73 100 CALM      30.10S


...EASTERN AND COASTAL SOUTH CAROLINA...

CITY           SKY/WX    TMP DP  RH WIND       PRES   REMARKS
MYRTLE BEACH   MOCLDY    77  73  88 NW5       30.08F
6HR MIN TEMP:  77; 6HR MAX TEMP:  81;

N MYRTLE BCH   PTCLDY    79  73  82 W3        30.08F
6HR MIN TEMP:  78; 6HR MAX TEMP:  80;

CONWAY         FAIR      72  72 100 CALM      30.09S FOG
MARION         FAIR      73  73 100 CALM      30.09S
HARTSVILLE     FAIR      73  73 100 CALM      30.10F
FLORENCE       CLEAR     76  74  93 S3        30.08F
6HR MIN TEMP:  76; 6HR MAX TEMP:  83;

DARLINGTON     CLEAR     75  72  88 CALM      30.09F
6HR MIN TEMP:  75; 6HR MAX TEMP:  84;

CHARLESTON APT PTCLDY    76  73  91 CALM      30.08S
6HR MIN TEMP:  76; 6HR MAX TEMP:  82;

MOUNT PLEASANT FAIR      73  73 100 CALM      30.08S
WALTERBORO     CLEAR     75 N/A N/A CALM      30.08F
BEAUFORT       PTCLDY    77  74  90 CALM      30.07F
6HR MIN TEMP:  77; 6HR MAX TEMP:  83;



...EASTERN GEORGIA...

CITY           SKY/WX    TMP DP  RH WIND       PRES   REMARKS
AUGUSTA BUSH F PTCLDY    73  72  96 CALM      30.07F
6HR MIN TEMP:  73; 6HR MAX TEMP:  81;

AUGUSTA DANIEL PTCLDY    76  73  91 CALM      30.09F
6HR MIN TEMP:  76; 6HR MAX TEMP:  82;

THOMSON        PTCLDY    76  76 100 CALM      30.13F
6HR MIN TEMP:  75; 6HR MAX TEMP:  84;

WASHINGTON     FAIR      77 N/A N/A CALM      30.11R
CLAXTON        FAIR     N/A N/A N/A CALM      30.08S HAZE
SYLVANIA       PTCLDY    73  73 100 CALM      30.09S FOG
6HR MIN TEMP:  73; 6HR MAX TEMP:  85;

STATESBORO     CLEAR     73  73 100 CALM      30.08S
6HR MIN TEMP:  73; 6HR MAX TEMP:  76;

SAVANNAH       PTCLDY    76  73  91 CALM      30.08S
6HR MIN TEMP:  76; 6HR MAX TEMP:  82;



...SOUTHERN NORTH CAROLINA...

CITY           SKY/WX    TMP DP  RH WIND       PRES   REMARKS
CHARLOTTE      MOCLDY    71  69  93 CALM      30.11F
6HR MIN TEMP:  71; 6HR MAX TEMP:  79;

MONROE         CLEAR     73  71  93 CALM      30.09F
6HR MIN TEMP:  73; 6HR MAX TEMP:  81;

WADESBORO      CLEAR     72  71  96 CALM      30.08F FOG
6HR MIN TEMP:  72; 6HR MAX TEMP:  83;

ROCKINGHAM       N/A     75  73  94 CALM      30.09F
RUTHERFORDTON  CLOUDY    70  70  99 NW7       30.14F FOG
6HR MIN TEMP:  70; 6HR MAX TEMP:  76;

ASHEVILLE      PTCLDY    68  67  96 CALM      30.19F
6HR MIN TEMP:  68; 6HR MAX TEMP:  75;


$$


USA.gov is the U.S. government's official web portal to all federal, state and local government web resources and services.